Starlink 4681

operational
NORAD ID: 53594 Int'l Des: 2022-104 Owner: SPXS Country: US Constellation: starlink
LEOCIRCULAR

Starlink 4681について

説明を読み込み中...

リアルタイム位置

3D地球を読み込み中...

次回通過

高度履歴

Altitude vs Time

uPlot chart will show altitude changes over time

軌道要素

1 53594U 22104G 25353.13133266 .00001686 00000-0 12399-3 0 9996
2 53594 53.2169 245.7364 0000960 80.3985 279.7116 15.08837480183923
Epoch: Dec 19, 2025 • Age: 8 hours

現在のステータス

高度 551.6 km
速度 7.59 km/s
衛星直下点 -35.68°S, 39.71°W
打ち上げ日 Aug 28, 2022
運用期間 3.3 years
タイプ internet

技術仕様

分類 Payload
質量 300.00 kg
乾燥質量 290.00 kg
総質量 300.00 kg
長さ 0.20 m
直径 2.80 m
スパン 9.00 m
形状 Box + pan
製造者 SPXS
バスタイプ Starlink
フェーズステータス In Orbit
所有者/国 SPXS/US

大規模コンステレーション

Loading constellations...